Weather History for Chambery, France

Change the Weather History Date:

Wednesday, March 12, 2014

  Actual Average Record
Temperature  
Mean Temperature 47 °F -  
Max Temperature 62 °F 56 °F 66 °F (1999)
Min Temperature 32 °F 37 °F 26 °F (2005)
Degree Days  
Heating Degree Days 18    
Moisture  
Dew Point 37 °F    
Average Humidity 74    
Maximum Humidity 100    
Minimum Humidity 34    
Precipitation  
Precipitation 0.00 in - - ()
Sea Level Pressure  
Sea Level Pressure 30.36 in    
Wind  
Wind Speed 1 mph ()    
Max Wind Speed 5 mph    
Max Gust Speed -    
Visibility 4.2 miles    
Events Fog    
Averages and records for this station are not official NWS values.
T = Trace of Precipitation, MM = Missing Value Source: Averaged Metar Reports

Daily Weather History Graph

Daily Weather History Graph

Search for Another Location

Airport:

Trip Planner

Search our weather history database for the weather conditions in past years. The results will help you decide how hot, cold, wet, or windy it might be!

Date:

Astronomy

Mar. 12, 2014 Rise Set
Actual Time 6:55 AM CET 6:38 PM CET
Civil Twilight 6:25 AM CET 7:07 PM CET
Nautical Twilight 5:51 AM CET 7:42 PM CET
Astronomical Twilight 5:16 AM CET 8:17 PM CET
Moon 2:45 PM CET (3/12) 4:26 AM CET (3/12)
Length of Visible Light 12h 42m
Length of Day
11h 42m
Waxing Gibbous, 84% of the Moon is Illuminated
Mar 12
Waxing Gibbous
Mar 16
Full
Mar 24
Last Quarter
Mar 30
New
Apr 7
First Quarter

Hourly Weather History & Observations

Time (CET) Temp. Windchill Dew Point Humidity Pressure Visibility Wind Dir Wind Speed Gust Speed Precip Events Conditions
12:00 AM 38 °F - 36 °F 90% 30.34 in 3 mi Calm Calm - -   Clear
12:00 AM 39.2 °F - 35.6 °F 87% 30.30 in 3.1 mi Calm Calm - N/A   Mist
12:30 AM 39.2 °F - 35.6 °F 87% 30.30 in 3.1 mi South 1.2 mph - N/A   Mist
1:00 AM 37 °F - 35 °F 91% 30.35 in 2 mi South 2.3 mph - -   Mist
1:00 AM 37.4 °F - 35.6 °F 93% 30.30 in - Variable 2.3 mph - N/A   Mist
1:30 AM 37.4 °F - 33.8 °F 87% 30.30 in 1.4 mi Variable 2.3 mph - N/A   Mist
2:00 AM 36 °F - 35 °F 92% 30.35 in 2 mi Calm Calm - -   Mist
2:00 AM 35.6 °F - 33.8 °F 93% 30.30 in - Calm Calm - N/A   Mist
2:30 AM 35.6 °F - 35.6 °F 100% 30.33 in - Calm Calm - N/A   Mist
3:00 AM 35 °F - 33 °F 92% 30.38 in 0 mi South 1.2 mph - - Fog Partial Fog
3:00 AM 35.6 °F - 33.8 °F 93% 30.33 in 1.2 mi Calm Calm - N/A   Mist
3:30 AM 35.6 °F - 33.8 °F 93% 30.33 in - Calm Calm - N/A   Mist
4:00 AM 33 °F - 32 °F 93% 30.39 in 1 mi South 2.3 mph - -   Mist
4:00 AM 33.8 °F - 32.0 °F 93% 30.33 in 1.4 mi South 2.3 mph - N/A   Mist
4:30 AM 33.8 °F - 32.0 °F 93% 30.33 in 1.6 mi Calm Calm - N/A   Mist
5:00 AM 33 °F - 32 °F 95% 30.40 in 2 mi SSE 1.2 mph - -   Mist
5:00 AM 33.8 °F - 32.0 °F 93% 30.36 in 1.6 mi Variable 1.2 mph - N/A   Mist
5:30 AM 32.0 °F - 32.0 °F 100% 30.36 in 2.5 mi SE 2.3 mph - N/A   Mist
6:00 AM 32 °F - 31 °F 95% 30.41 in 4 mi SSW 2.3 mph - -  
6:00 AM 32.0 °F - 32.0 °F 100% 30.36 in 3.7 mi Variable 2.3 mph - N/A   Unknown
6:30 AM 32.0 °F - 32.0 °F 100% 30.36 in 3.1 mi Calm Calm - N/A   Unknown
7:00 AM 33 °F - 32 °F 92% 30.43 in 3 mi Calm Calm - -  
7:00 AM 32.0 °F - 32.0 °F 100% 30.36 in 3.1 mi Calm Calm - N/A   Unknown
7:30 AM 32.0 °F - 30.2 °F 93% 30.39 in 3.7 mi Calm Calm - N/A   Unknown
8:00 AM 33 °F - 33 °F 97% 30.45 in 4 mi Calm Calm - -  
8:00 AM 33.8 °F - 32.0 °F 93% 30.39 in 3.7 mi Calm Calm - N/A   Unknown
8:30 AM 37.4 °F - 35.6 °F 93% 30.39 in 3.7 mi Calm Calm - N/A   Unknown
9:00 AM 41 °F - 37 °F 82% 30.45 in 3 mi ENE 1.2 mph - -   Mist
9:05 AM 41.0 °F - 37.4 °F 87% 30.42 in 3.7 mi Calm Calm - N/A   Unknown
9:30 AM 42.8 °F - 39.2 °F 87% 30.42 in 3.7 mi Calm Calm - N/A   Unknown
10:00 AM 47 °F - 36 °F 57% 30.45 in 4 mi East 2.3 mph - -  
10:00 AM 46.4 °F - 37.4 °F 71% 30.42 in 3.7 mi Variable 2.3 mph - N/A   Unknown
10:34 AM 50.0 °F - 39.2 °F 66% 30.42 in 3.7 mi Variable 1.2 mph - N/A   Unknown
11:00 AM 53 °F - 40 °F 51% 30.43 in 4 mi Calm Calm - -  
11:00 AM 51.8 °F - 39.2 °F 62% 30.42 in 4.3 mi Calm Calm - N/A   Unknown
11:30 AM 53.6 °F - 39.2 °F 58% 30.39 in 5.0 mi Variable 3.5 mph - N/A   Unknown
12:00 PM 55 °F - 38 °F 40% 30.40 in 5 mi North 4.6 mph - -   Clear
12:07 PM 55.4 °F - 37.4 °F 51% 30.39 in 5.0 mi North 4.6 mph - N/A   Unknown
12:30 PM 57.2 °F - 37.4 °F 48% 30.39 in 5.6 mi North 3.5 mph - N/A   Unknown
1:00 PM 57 °F - 38 °F 37% 30.38 in 6 mi North 4.6 mph - -  
1:00 PM 57.2 °F - 37.4 °F 48% 30.36 in 5.6 mi North 4.6 mph - N/A   Unknown
1:39 PM 57.2 °F - 39.2 °F 51% 30.36 in 5.6 mi North 4.6 mph - N/A   Unknown
2:00 PM 59 °F - 40 °F 37% 30.35 in 6 mi North 4.6 mph - -  
2:00 PM 59.0 °F - 39.2 °F 48% 30.33 in 5.6 mi North 4.6 mph - N/A   Unknown
2:30 PM 59.0 °F - 39.2 °F 48% 30.33 in 5.0 mi North 4.6 mph - N/A   Unknown
3:00 PM 60 °F - 41 °F 37% 30.33 in 4 mi NNW 3.5 mph - -   Clear
3:04 PM 60.8 °F - 41.0 °F 48% 30.33 in 5.0 mi NNW 4.6 mph - N/A   Unknown
3:30 PM 60.8 °F - 41.0 °F 48% 30.33 in 5.0 mi North 4.6 mph - N/A   Unknown
4:00 PM 62 °F - 41 °F 34% 30.32 in 6 mi North 3.5 mph - -   Clear
4:00 PM 62.6 °F - 41.0 °F 45% 30.33 in 5.0 mi North 3.5 mph - N/A   Unknown
4:30 PM 62.6 °F - 41.0 °F 45% 30.30 in 5.0 mi North 3.5 mph - N/A   Unknown
5:00 PM 62 °F - 41 °F 34% 30.31 in 5 mi North 3.5 mph - -  
5:00 PM 62.6 °F - 41.0 °F 45% 30.30 in 5.0 mi North 3.5 mph - N/A   Unknown
5:30 PM 59.0 °F - 42.8 °F 55% 30.30 in 5.0 mi Variable 3.5 mph - N/A   Unknown
6:00 PM 55 °F - 41 °F 48% 30.32 in 6 mi West 2.3 mph - -  
6:00 PM 55.4 °F - 41.0 °F 58% 30.30 in 5.6 mi Variable 2.3 mph - N/A   Unknown
6:30 PM 53.6 °F - 42.8 °F 67% 30.30 in 5.6 mi Calm Calm - N/A   Unknown
7:00 PM 51 °F - 43 °F 66% 30.35 in 6 mi Calm Calm - -   Clear
7:00 PM 50.0 °F - 42.8 °F 76% 30.33 in 6.2 mi Calm Calm - N/A   Unknown
7:30 PM 50.0 °F - 41.0 °F 71% 30.33 in 6.2 mi Calm Calm - N/A   Unknown
8:00 PM 47 °F - 41 °F 73% 30.36 in 6 mi SSW 1.2 mph - -   Clear
8:00 PM 48.2 °F - 41.0 °F 76% 30.33 in 6.2 mi Calm Calm - N/A   Unknown
8:30 PM 46.4 °F - 41.0 °F 81% 30.33 in 6.2 mi Calm Calm - N/A   Unknown
9:00 PM 45 °F - 40 °F 78% 30.38 in 4 mi Calm Calm - -   Clear
9:00 PM 44.6 °F - 41.0 °F 87% 30.33 in 4.3 mi Calm Calm - N/A   Unknown
9:30 PM 44.6 °F - 39.2 °F 81% 30.33 in 5.6 mi Calm Calm - N/A   Unknown
10:00 PM 43 °F - 39 °F 80% 30.39 in 5 mi SSE 2.3 mph - -   Clear
10:00 PM 42.8 °F - 39.2 °F 87% 30.36 in 5.0 mi SSE 2.3 mph - N/A   Unknown
10:30 PM 42.8 °F - 39.2 °F 87% 30.36 in 5.0 mi Calm Calm - N/A   Unknown
11:00 PM 41 °F - 38 °F 85% 30.40 in 4 mi SSE 1.2 mph - -   Clear
11:00 PM 41.0 °F - 37.4 °F 87% 30.36 in 4.3 mi SSE 1.2 mph - N/A   Unknown
11:30 PM 41.0 °F 39.0 °F 39.2 °F 93% 30.36 in 4.3 mi South 3.5 mph - N/A   Unknown